Location: ??????
(38.1303°N, 24.0039°E)
Time: 08:32:49
(UTC+00:00)

FALCON 9 DEB - Pass Details

Date: 20 June 2021
Orbit: 422 x 432 km, 53.0° (Epoch: 30 July)

Event Time Altitude Azimuth Distance (km) Brightness Sun altitude
Rises 01:34:30 0° 307° (NW) 2,383 6.8 -14.2°
Reaches altitude 10° 01:36:38 10° 302° (WNW) 1,513 5.7 -13.9°
Maximum altitude 01:39:56 50° 226° (SW) 545 3.2 -13.4°
Drops below altitude 10° 01:43:12 10° 150° (SSE) 1,499 5.7 -12.9°
Sets 01:45:19 0° 144° (SE) 2,358 6.8 -12.6°
